Simultaneous Nadir Overpasses (SNOs) Predictions

Prediction of SNOs between AQUA and GOES-15 Satellite Orbit:

Table of predicted SNOs for the next 14.0 days since TLE Epoch: 12/14/2018
Index Date Time (AQUA) AQUA Lat,Lon GOES-15 Lat,Lon Distance(km) Time Diff (sec)
1 12/16/2018 10:01:00 -0.49,-126.44 -0.02,-128.67 254.32 80
2 12/16/2018 22:22:24 -0.60,-131.63 0.03,-128.56 348.68 80
3 12/18/2018 22:10:13 0.00,-128.67 0.03,-128.56 12.56 80
4 12/20/2018 21:58:02 0.61,-125.71 0.02,-128.55 322.76 80
5 12/21/2018 10:19:19 0.44,-130.88 -0.04,-128.66 251.71 80
6 12/23/2018 10:07:08 -0.18,-127.92 -0.03,-128.65 82.53 80
7 12/25/2018 09:54:57 -0.80,-124.96 -0.02,-128.62 416.12 80
8 12/25/2018 22:16:20 -0.30,-130.15 0.04,-128.50 188.12 80
9 12/27/2018 22:04:10 0.32,-127.20 0.04,-128.47 145.12 80
10 12/28/2018 10:25:25 0.78,-132.35 -0.05,-128.59 429.24 80




NCC Satellite Simultaneous Nadir Overpasses (SNOs) Prediction Service
